World > North America > United States > South Carolina > Dunbarton

Dunbarton, SC Hourly Weather Conditions

Feedback E-mail the Weather

Quick WX

Dunbarton, SC Weather Maps

°F °C°F °C
Dunbarton Weather Map
UTC Time: 2/2/2023, 17:32
Your Time:

Dunbarton, SC Regional Weather

Expires:202302021800;;683276
ASUS42 KCHS 021725
RWRCHS

Regional Weather Roundup
National Weather Service Charleston SC
1200 PM EST THU FEB 02 2023

NOTE: "fair" indicates few or no clouds below 12,000 feet with no
significant weather and/or obstructions to visibility.

Not all stations are quality controlled. Use data with caution,
especially dewpoint observations.


SCZ027-030-031-034>040-042>050-021800-
...Southeast South Carolina...
  
CITY           SKY/WX    TMP DP  RH WIND       PRES   REMARKS
N Charleston   CLOUDY    56  52  86 N5        30.16F FOG              
Waterfront Prk   N/A     54  52  93 VRB2      30.04S                  
Mount Pleasant CLOUDY    54  54 100 CALM      30.16F FOG              
Johns Island   CLOUDY    55  55 100 NE3       30.16F FOG              
Pinopolis        N/A     48  48 100 N7          N/A                   
Moncks Corner  FOG       48  46  93 N9        30.19S VSB 3/4          
Summerville    FOG       50  50 100 N9        30.18S VSB 3/4          
Beaufort MCAS  CLOUDY    61  58  90 S5        30.16F FOG              
Beaufort Arpt  CLOUDY    57  57 100 CALM      30.15F                  
Hilton Head Is CLOUDY    57  57 100 CALM      30.17F FOG              
Walterboro     CLOUDY    52  52 100 N8        30.18F FOG              
Allendale        N/A    N/A N/A N/A MISG        N/A                   

...Southern Midlands and Pee Dee...
  
CITY           SKY/WX    TMP DP  RH WIND       PRES   REMARKS
Georgetown     CLOUDY    46  45  93 N7        30.19F FOG              
Kingstree      DRIZZLE  N/A N/A N/A N3        30.22S                  
Orangeburg     LGT RAIN  47  45  93 N8        30.19F FOG              
Barnwell       LGT RAIN  48  46  93 NE8       30.19F                  
Aiken          DRIZZLE   47  46  95 NE7       30.18F FOG              
Manning        CLOUDY    43  43 100 NE6       30.20F THUNDER FOG      
Columbia       CLOUDY    46  44  93 NE5       30.20F FOG              
Sumter         LGT RAIN  45  41  87 NE8       30.19F FOG              
Florence       CLOUDY    42  40  92 NE6       30.21F FOG              
Myrtle Beach   LGT RAIN  43  43 100 N14       30.19F                  
N Myrtle Beach LGT RAIN  41  40  96 N9G20     30.20F FOG              

$$
 

SKY/WX - Weather  TMP - Temperature  DP - Dew Point  RH - Humidity
WIND - Wind Direction/Speed PRES - Barometric Pressure VSB - Visibility
WCI - Wind Chill Index E13G22 Wind - East Wind 13 mph/Gusts of 22 mph

Trending Headlines

Trending Entertainment Headlines

Dunbarton Radar Loop

Use the map search tool if you want to place a location marker on the radar map...

Dunbarton Quick Facts

National Two Day Weather Forecast


E-mail the Dunbarton Weather Forecast

Voice your opinion or tell us about page issues...